Location: Hilton Head Island
(32.2163°N, 80.7526°W)
Time: 06:05:39
(UTC-04:00)

Altair - Pass Details

Date: 21 February 2026
Orbit: 1502 x 1682 km, 47.2° (Epoch: 8 March)

Event Time Altitude Azimuth Distance (km) Brightness Sun altitude
Exits shadow 04:47:18 45° 307° (NW) 1,977 7.7 -28.6°
Maximum altitude 04:48:56 48° 334° (NNW) 1,894 7.7 -28.3°
Drops below altitude 10° 04:57:55 10° 48° (NE) 3,726 10.2 -26.4°
Sets 05:01:13 0° 54° (NE) 4,734 10.9 -25.7°
